Content
SEND FEEDBACK

Daily
Averages
Monthly
Summary
Turkmenistan

ASHGABAT, TURKMENISTAN


Home > Asia > Turkmenistan
Elevation: 775 feet     Latitude: 37 58N     Longitude: 058 20E

WEATHER
 
SELECT A DAY
Number of Records: 177,170;   Date Range: 3/15/97 - 7/23/14
 
SHARE

PRINT THIS DATA

[ ← Previous Day ]
WEATHER ALMANAC - OCTOBER 22, 2013
[ Next Day → ]
[ °C ]   °F
Weather ElementAverageHighLow
Temperature55.8 °F62.6 °F (4:00 pm)51.8 °F (11:00 pm)
Dewpoint50 °F53 °F (5:00 am)46.4 °F (3:00 pm)
Humidity80.4 %94 % (2:00 am)55 % (4:00 pm)
Barometer30.29 in30.36 in (2:00 am)30.21 in (9:00 pm)
Wind Speed4.4 mph8.9 mph (1:00 am)
Wind Gust15.7 mph (10:00 pm)
Weather ElementAverage
Visibility5.8 mi
Wind DirectionWSW (233.5 °)

Weather ElementTotal
Precipitation---
Heating Degree Days7.8 (Base 65)
Growing Degree Days7.2 (Base 50)
Averaged from 38 records on October 22, 2013
WEATHER CONDITIONS BREAKOUT
WIND DIRECTION BREAKOUT
WEATHER BY HOUR - OCTOBER 22, 2013
[ °C ]   °F
Local TimeTemperatureDewpointHumidityBarometerVisibilityWind DirectionWind SpeedGust SpeedPrecipitationEventsConditions
1:00 AM55.4 °F51.8 °F88 %30.33 in5.0 miWest (280°)8.9 mphOvercast
2:00 AM56.0 °F52.0 °F81 %30.36 in6.0 miWest (270°)4.5 mphRainLight Rain
2:00 AM53.6 °F51.8 °F94 %30.33 in4.3 miWest (260°)4.5 mphRainLight Rain
2:30 AM53.6 °F51.8 °F94 %30.33 in1.8 miWest (280°)8.9 mphRainOvercast
3:00 AM53.6 °F51.8 °F94 %30.33 inWNW (290°)6.7 mphRainOvercast
3:30 AM53.6 °F51.8 °F94 %30.33 in6.2 miWest (270°)4.5 mphLight Drizzle
4:00 AM53.6 °F51.8 °F94 %30.33 in3.7 miVariable2.2 mphLight Drizzle
4:30 AM53.6 °F51.8 °F94 %30.33 in1.5 miSSW (200°)2.2 mphLight Drizzle
5:00 AM53.6 °F51.8 °F94 %30.30 in6.2 miWest (260°)2.2 mphLight Drizzle
5:00 AM54.0 °F53.0 °F93 %30.36 in6.0 miWest (260°)2.2 mphOvercast
5:30 AM53.6 °F51.8 °F94 %30.30 in6.2 miWest (280°)2.2 mphLight Drizzle
6:00 AM53.6 °F51.8 °F94 %30.30 in6.2 miCalmRainLight Rain
6:30 AM53.6 °F51.8 °F94 %30.30 in6.2 miWNW (300°)2.2 mphOvercast
7:00 AM53.6 °F50.0 °F88 %30.30 in6.2 miWNW (290°)4.5 mphOvercast
8:00 AM53.6 °F50.0 °F88 %30.33 in6.2 miWNW (300°)2.2 mphOvercast
8:00 AM54.0 °F50.0 °F80 %30.35 in6.0 miWNW (290°)4.5 mphPartly Cloudy
8:30 AM53.6 °F50.0 °F88 %30.33 in6.2 miNW (320°)4.5 mphOvercast
9:00 AM53.6 °F50.0 °F88 %30.33 in6.2 miWNW (290°)4.5 mphOvercast
9:30 AM55.4 °F50.0 °F82 %30.33 in6.2 miWNW (290°)6.7 mphOvercast
10:00 AM55.4 °F50.0 °F82 %30.33 in6.2 miWNW (290°)6.7 mphMostly Cloudy
11:00 AM60.0 °F51.0 °F64 %30.35 in6.0 miWNW (290°)6.7 mphPartly Cloudy
11:00 AM57.2 °F48.2 °F72 %30.33 in6.2 miWNW (290°)6.7 mphMostly Cloudy
12:00 PM59.0 °F50.0 °F72 %30.30 in6.2 miWNW (300°)4.5 mphOvercast
1:00 PM59.0 °F50.0 °F72 %30.30 in6.2 miNNW (330°)6.7 mphOvercast
2:00 PM59.0 °F51.0 °F67 %30.29 in6.0 miNNW (340°)6.7 mphMostly Cloudy
2:00 PM60.8 °F48.2 °F63 %30.27 in6.2 miNNW (340°)8.9 mphMostly Cloudy
3:00 PM60.8 °F46.4 °F59 %30.24 in6.2 miNorth (360°)4.5 mphMostly Cloudy
4:00 PM62.6 °F46.4 °F55 %30.24 in6.2 miVariable2.2 mphMostly Cloudy
5:00 PM60.8 °F48.2 °F63 %30.24 in6.2 miVariable2.2 mphMostly Cloudy
5:00 PM61.0 °F49.0 °F55 %30.26 in6.0 miCalmMostly Cloudy
6:00 PM59.0 °F48.2 °F67 %30.24 in6.2 miNNW (340°)2.2 mphMostly Cloudy
7:00 PM57.2 °F48.2 °F72 %30.24 in6.2 miSE (130°)2.2 mphMostly Cloudy
8:00 PM56.0 °F49.0 °F69 %30.25 in6.0 miESE (110°)4.5 mphScattered Clouds
8:00 PM55.4 °F48.2 °F77 %30.24 in6.2 miESE (110°)4.5 mphScattered Clouds
9:00 PM55.4 °F48.2 °F77 %30.21 in6.2 miESE (120°)4.5 mphPartly Cloudy
10:00 PM53.6 °F48.2 °F82 %30.21 in6.2 miSSW (200°)4.5 mph15.7 mphClear
11:00 PM53.0 °F50.0 °F84 %30.23 in6.0 miSouth (180°)4.5 mph
11:00 PM51.8 °F48.2 °F88 %30.21 in6.2 miSouth (180°)4.5 mphClear
Hourly data recorded from UTAA, located miles away from Ashgabat, Turkmenistan







STORIES FROM OUR PARTNERS